DLH6PS EDDF-EGPF

Flight info

Callsign DLH6PS
Flight time N/A
Altitude 34000
Route OBOKA2E/07C OBOKA Z28 DIBIR DCT BUDIP DCT MIMVA L602 EMLON M79 TENDO DCT AGPED
Aircraft A21N/M-SDE2E3FGHIRWXY/LB1

Departure

Time 2026-04-14 13:38
Airport Frankfurt Main Airport (EDDF)

Arrival

Time N/A
Airport Glasgow Airport (EGPF)
Time Latitude Longitude Altitude Speed Heading
2026-04-14 13:11 50.04436 8.56327 363 ft 0 kts 167°
2026-04-14 13:28 50.04454 8.56320 366 ft 4 kts 167°
2026-04-14 13:29 50.04478 8.56312 363 ft 4 kts 182°
2026-04-14 13:29 50.04499 8.56326 367 ft 4 kts 234°
2026-04-14 13:29 50.04508 8.56350 364 ft 0 kts 249°
2026-04-14 13:32 50.04504 8.56332 368 ft 6 kts 250°
2026-04-14 13:32 50.04487 8.56262 359 ft 7 kts 250°
2026-04-14 13:33 50.04464 8.56165 364 ft 11 kts 250°
2026-04-14 13:33 50.04424 8.56042 363 ft 14 kts 218°
2026-04-14 13:33 50.04332 8.56061 360 ft 13 kts 159°
2026-04-14 13:33 50.04286 8.56180 362 ft 15 kts 114°
2026-04-14 13:34 50.04112 8.56220 363 ft 17 kts 246°
2026-04-14 13:34 50.04073 8.56045 359 ft 18 kts 251°
2026-04-14 13:34 50.04024 8.55842 361 ft 22 kts 249°
2026-04-14 13:35 50.03967 8.55607 357 ft 25 kts 250°
2026-04-14 13:35 50.03905 8.55349 359 ft 27 kts 250°
2026-04-14 13:35 50.03838 8.55068 352 ft 29 kts 250°
2026-04-14 13:35 50.03770 8.54773 355 ft 25 kts 247°
2026-04-14 13:36 50.03711 8.54534 352 ft 24 kts 249°
2026-04-14 13:36 50.03671 8.54365 348 ft 13 kts 248°
2026-04-14 13:36 50.03599 8.54310 353 ft 12 kts 161°
2026-04-14 13:36 50.03519 8.54360 348 ft 11 kts 154°
2026-04-14 13:37 50.03501 8.54458 352 ft 10 kts 72°
2026-04-14 13:37 50.03510 8.54500 353 ft 14 kts 71°
2026-04-14 13:37 50.03621 8.54963 348 ft 77 kts 69°
2026-04-14 13:37 50.03887 8.56075 361 ft 142 kts 69°
2026-04-14 13:38 50.04268 8.57728 591 ft 169 kts 67°
2026-04-14 13:38 50.04666 8.59423 1273 ft 167 kts 66°
2026-04-14 13:38 50.05079 8.61134 1964 ft 170 kts 67°
2026-04-14 13:38 50.05711 8.62812 2389 ft 193 kts 43°
2026-04-14 13:39 50.06955 8.63636 2953 ft 202 kts
2026-04-14 13:39 50.08422 8.63662 3601 ft 218 kts 358°
2026-04-14 13:39 50.09954 8.63525 4388 ft 222 kts 357°
2026-04-14 13:39 50.11523 8.63375 4987 ft 239 kts 357°
2026-04-14 13:40 50.13230 8.63230 5679 ft 250 kts 358°
2026-04-14 13:40 50.14990 8.63095 6512 ft 256 kts 358°
2026-04-14 13:40 50.16760 8.62689 7000 ft 260 kts 345°
2026-04-14 13:40 50.18402 8.61473 7163 ft 264 kts 324°
2026-04-14 13:41 50.19577 8.59266 7369 ft 271 kts 297°
2026-04-14 13:41 50.20233 8.56468 8155 ft 277 kts 288°
2026-04-14 13:41 50.20770 8.53583 9185 ft 277 kts 285°
2026-04-14 13:41 50.21290 8.50676 10150 ft 279 kts 284°
2026-04-14 13:42 50.21824 8.47680 10762 ft 295 kts 284°
2026-04-14 13:42 50.22398 8.44468 11111 ft 319 kts 284°
2026-04-14 13:42 50.23017 8.41009 11483 ft 340 kts 284°
2026-04-14 13:42 50.23659 8.37431 12126 ft 350 kts 284°
2026-04-14 13:43 50.24319 8.33760 12994 ft 353 kts 284°
2026-04-14 13:43 50.24987 8.30038 13868 ft 358 kts 284°
2026-04-14 13:43 50.25665 8.26249 14582 ft 364 kts 285°
2026-04-14 13:43 50.26356 8.22383 15215 ft 371 kts 286°
2026-04-14 13:44 50.27050 8.18491 16070 ft 372 kts 286°
2026-04-14 13:44 50.27750 8.14557 16712 ft 378 kts 286°
2026-04-14 13:44 50.28457 8.10573 17490 ft 382 kts 286°
2026-04-14 13:44 50.29161 8.06592 18197 ft 385 kts 286°
2026-04-14 13:45 50.29879 8.02530 18833 ft 390 kts 286°
2026-04-14 13:45 50.30607 7.98398 19446 ft 392 kts 286°
2026-04-14 13:45 50.31324 7.94321 20114 ft 394 kts 286°
2026-04-14 13:45 50.32053 7.90165 20711 ft 398 kts 286°
2026-04-14 13:46 50.32788 7.85965 21269 ft 402 kts 286°
2026-04-14 13:46 50.33527 7.81736 21916 ft 404 kts 286°
2026-04-14 13:46 50.34271 7.77470 22488 ft 407 kts 286°
2026-04-14 13:46 50.35171 7.73316 23046 ft 410 kts 294°
2026-04-14 13:47 50.36586 7.69353 23595 ft 413 kts 306°
2026-04-14 13:47 50.38514 7.66009 24062 ft 416 kts 318°
2026-04-14 13:47 50.40875 7.63368 24510 ft 419 kts 330°
2026-04-14 13:47 50.43503 7.61353 24973 ft 422 kts 335°
2026-04-14 13:48 50.46200 7.59506 25413 ft 424 kts 336°
2026-04-14 13:48 50.48884 7.57691 25831 ft 426 kts 336°
2026-04-14 13:48 50.51613 7.55834 26273 ft 429 kts 336°
2026-04-14 13:48 50.54355 7.53934 26667 ft 431 kts 334°
2026-04-14 13:49 50.56996 7.51693 27072 ft 432 kts 328°
2026-04-14 13:49 50.59547 7.49171 27462 ft 434 kts 327°
2026-04-14 13:49 50.62094 7.46570 27819 ft 437 kts 327°
2026-04-14 13:49 50.64629 7.43965 28406 ft 433 kts 327°
2026-04-14 13:50 50.67143 7.41381 29069 ft 428 kts 327°
2026-04-14 13:50 50.69605 7.38848 29581 ft 427 kts 327°
2026-04-14 13:50 50.72065 7.36235 30034 ft 426 kts 324°
2026-04-14 13:50 50.74330 7.33228 30454 ft 426 kts 316°
2026-04-14 13:51 50.76293 7.29720 30820 ft 425 kts 309°
2026-04-14 13:51 50.78080 7.25996 31196 ft 424 kts 307°
2026-04-14 13:51 50.79799 7.22206 31563 ft 424 kts 307°
2026-04-14 13:51 50.81480 7.18397 31919 ft 423 kts 306°
2026-04-14 13:52 50.83153 7.14569 32260 ft 422 kts 306°
2026-04-14 13:52 50.84820 7.10758 32608 ft 420 kts 306°
2026-04-14 13:52 50.86490 7.06954 32952 ft 419 kts 306°
2026-04-14 13:52 50.88131 7.03225 33343 ft 415 kts 307°
2026-04-14 13:53 50.89780 6.99490 33820 ft 411 kts 307°
2026-04-14 13:53 50.91415 6.95792 34142 ft 410 kts 307°
2026-04-14 13:53 50.93062 6.92069 34206 ft 413 kts 307°
2026-04-14 13:54 50.96357 6.84608 34208 ft 412 kts 307°
2026-04-14 13:54 50.99623 6.77189 34207 ft 412 kts 307°
2026-04-14 13:55 51.02901 6.69718 34206 ft 412 kts 307°
2026-04-14 13:55 51.06171 6.62240 34196 ft 411 kts 307°
2026-04-14 13:56 51.09405 6.54822 34209 ft 406 kts 307°
2026-04-14 13:56 51.12621 6.47424 34211 ft 405 kts 307°
2026-04-14 13:57 51.15805 6.40081 34213 ft 405 kts 307°
2026-04-14 13:57 51.19002 6.32688 34210 ft 405 kts 306°
2026-04-14 13:58 51.22195 6.25279 34206 ft 405 kts 306°
2026-04-14 13:58 51.25378 6.17871 34200 ft 404 kts 307°
2026-04-14 13:59 51.28524 6.10480 34204 ft 401 kts 306°
2026-04-14 13:59 51.31574 6.03076 34203 ft 401 kts 305°
2026-04-14 14:00 51.34616 5.95600 34205 ft 401 kts 305°
2026-04-14 14:00 51.37795 5.88284 34203 ft 399 kts 312°
2026-04-14 14:01 51.41722 5.82039 34204 ft 397 kts 318°
2026-04-14 14:01 51.45838 5.76132 34192 ft 398 kts 319°
2026-04-14 14:02 51.50002 5.70265 34207 ft 397 kts 319°
2026-04-14 14:02 51.54120 5.64431 34210 ft 397 kts 319°
2026-04-14 14:03 51.58245 5.58544 34207 ft 397 kts 319°
2026-04-14 14:03 51.62378 5.52619 34206 ft 397 kts 319°
2026-04-14 14:04 51.66504 5.46687 34204 ft 397 kts 319°
2026-04-14 14:04 51.70598 5.40789 34203 ft 397 kts 319°